GEFSNE_500_meanwind_048.txt.gz
Wind_Speed
45 46 47 47 47 45 43 43 42 41 40 40 40 39 39 38 36 34 32 31 30 29 28 27 25 25 24 24 23 23 23 24 24 25 26 27 28 28
42 45 46 46 48 47 46 44 44 43 42 42 41 42 42 40 39 37 35 34 33 30 29 28 27 26 25 25 24 25 26 26 27 27 27 28 28 28
39 41 44 46 46 47 46 47 46 45 44 43 42 42 43 42 41 39 38 36 34 33 31 29 29 28 27 26 26 26 27 27 28 28 29 28 28 28
34 38 41 44 44 46 47 47 47 46 45 44 43 43 42 41 41 41 39 37 36 34 32 32 31 30 29 27 27 27 27 27 28 28 28 28 28 27
29 33 37 40 42 44 45 46 46 45 43 43 42 41 41 40 40 40 40 39 37 36 34 33 32 30 28 27 27 27 27 27 27 27 27 27 27 26
23 26 30 34 38 40 42 43 43 44 44 43 42 41 41 42 42 41 40 38 37 35 34 34 32 30 28 27 26 26 26 27 27 27 26 26 25 24
21 23 25 28 30 33 36 38 39 40 41 42 42 42 41 41 41 42 41 39 38 36 36 34 32 30 28 27 27 26 26 27 27 27 25 25 24 22
20 21 22 25 26 28 30 33 34 35 37 38 39 39 40 41 40 39 40 40 38 36 35 33 31 29 28 28 27 26 27 27 26 25 24 23 21 19
19 19 20 22 23 25 26 28 29 30 33 35 36 36 36 38 38 39 40 39 37 35 33 32 30 29 29 28 27 27 27 26 25 24 22 20 18 16
18 18 19 19 21 22 23 25 26 28 29 30 31 32 32 33 34 35 36 35 34 33 32 31 30 29 28 28 27 26 25 24 22 22 21 18 15 14
15 16 18 18 18 20 21 23 23 24 26 26 26 27 28 29 30 30 31 31 32 31 30 29 28 28 27 26 25 24 22 21 21 20 19 16 14 13
12 13 15 16 17 17 19 20 21 22 22 24 25 25 26 27 28 28 28 29 29 29 27 27 27 27 25 25 24 23 21 21 20 19 17 15 13 12
8 10 11 13 14 15 16 17 18 20 21 22 24 24 25 27 27 27 27 27 27 27 26 25 25 24 24 24 23 22 21 19 18 16 15 13 12 11
3 6 8 10 11 13 14 15 16 18 19 20 21 22 23 25 27 27 27 26 26 25 24 23 22 22 23 22 21 20 18 17 16 15 14 13 12 11
5 5 6 7 8 10 12 13 14 15 17 18 19 19 20 21 23 25 26 25 25 24 23 22 22 21 21 20 19 18 17 16 15 14 13 12 12 11
8 7 6 5 6 7 8 10 11 13 14 15 16 17 18 19 20 21 22 23 23 24 23 21 20 19 19 18 17 16 15 14 14 13 13 12 12 12
10 8 6 5 5 6 7 8 8 11 12 12 13 14 15 17 18 18 19 19 19 19 19 19 18 17 16 16 15 15 14 14 14 13 13 13 12 12
11 9 7 6 6 6 7 8 8 9 9 11 11 12 13 15 16 16 16 17 19 18 17 16 16 14 14 14 14 13 14 14 13 13 13 13 13 12
10 9 7 6 6 7 7 8 8 9 9 10 11 12 13 14 14 15 16 16 17 16 15 14 13 13 13 13 13 14 14 14 14 13 13 12 12 12
9 8 7 7 7 7 7 7 8 8 8 8 9 11 12 13 14 14 15 15 15 15 15 14 13 13 13 13 13 14 14 14 13 13 12 12 12 12
8 7 6 6 6 6 6 6 7 7 7 8 9 10 11 12 12 13 13 13 13 14 14 14 13 13 13 13 13 13 13 13 13 12 12 12 12 13
5 4 4 4 4 4 5 5 5 6 7 8 9 9 10 11 11 12 12 12 12 13 14 14 14 13 13 13 13 13 13 12 12 12 12 12 13 14
4 2 1 1 2 3 4 5 6 6 7 7 8 9 10 10 10 11 11 11 12 12 13 13 13 13 13 13 13 13 12 12 12 12 12 13 14 15

GEFSNE_500_meanwind_054.txt.gz
Wind_Speed
41 43 44 46 47 47 48 47 46 45 44 43 43 42 43 43 42 41 40 38 37 35 33 31 30 29 28 27 26 26 25 24 24 23 23 22 22 23
38 41 43 45 47 48 49 50 49 47 46 45 46 44 43 42 42 42 41 40 38 36 34 33 31 30 30 29 28 27 26 26 25 24 24 24 25 25
33 37 40 43 46 48 49 50 50 49 48 46 47 46 46 45 44 43 42 41 41 38 36 35 33 32 31 31 29 28 28 27 26 25 25 25 26 25
30 33 35 39 42 45 47 49 50 49 48 48 48 47 46 46 46 44 43 42 41 39 38 37 36 34 33 32 31 30 29 29 28 27 27 26 26 25
28 30 32 35 38 41 44 46 49 50 49 48 49 48 48 47 47 45 43 42 42 41 40 39 38 37 35 35 34 33 32 31 29 28 27 26 25 25
26 29 31 32 35 37 40 43 45 47 49 49 48 48 48 48 47 46 44 42 42 43 42 41 39 39 37 36 36 35 34 32 30 28 26 25 24 24
24 26 28 30 32 34 37 40 42 45 46 47 48 48 48 48 47 47 46 44 44 43 43 43 42 41 40 39 37 36 34 32 29 27 25 25 24 24
23 25 26 28 29 30 33 36 39 42 43 44 45 46 46 46 47 47 46 46 44 43 42 42 43 43 42 41 39 37 34 31 29 27 26 25 24 23
20 22 24 24 26 27 29 31 34 37 41 42 43 43 44 44 46 46 46 45 44 44 43 43 43 43 42 41 40 37 35 32 30 28 27 25 24 23
16 17 19 21 23 24 25 26 29 32 35 38 39 40 42 43 43 43 44 45 45 44 44 44 44 43 41 40 38 36 34 31 29 27 27 26 24 23
11 12 14 16 18 19 19 21 23 26 29 32 34 35 37 38 40 42 42 43 43 42 42 41 41 41 40 39 37 35 32 29 28 27 26 25 23 22
8 7 9 11 13 14 16 17 20 22 24 26 29 31 32 34 36 37 39 40 40 41 40 40 39 39 38 37 36 34 32 29 28 26 25 23 22 22
7 5 4 6 9 11 14 15 17 19 20 23 25 27 29 30 32 34 35 36 36 38 38 38 38 38 37 36 35 33 30 28 26 24 24 24 23 22
9 5 3 2 5 8 11 13 15 17 19 20 23 24 25 27 29 30 31 32 32 33 34 34 35 35 35 34 32 30 29 27 25 24 24 24 23 23
10 7 4 2 2 5 8 10 12 14 16 18 20 21 23 24 26 28 29 30 30 29 29 30 31 31 30 29 28 28 27 26 25 25 25 24 23 22
12 8 5 4 2 3 6 8 10 11 14 16 17 19 20 22 24 25 26 27 26 26 27 27 27 27 27 26 27 26 26 25 24 25 24 23 22 22
12 9 6 5 3 3 4 7 9 10 11 13 16 17 19 20 21 22 24 25 25 24 24 25 25 26 25 25 25 24 24 24 24 23 22 22 21 21
12 10 8 5 4 3 3 5 7 9 11 12 14 15 17 18 19 20 22 22 23 24 24 25 24 24 24 24 24 24 24 24 23 22 21 21 21 20
12 10 8 6 4 3 3 3 5 8 10 11 13 15 16 17 19 20 21 21 22 23 23 24 24 23 23 23 23 23 22 22 22 22 21 21 21 20
11 10 8 6 4 4 3 3 4 6 8 10 12 14 15 16 18 19 19 20 21 22 24 24 23 22 21 21 21 22 21 21 21 21 21 21 21 20
11 9 8 6 5 4 4 4 5 6 7 9 12 13 15 16 18 18 19 20 20 21 21 22 22 22 21 21 21 20 21 21 21 20 20 20 20 20
12 10 9 7 7 6 6 6 6 7 8 9 11 13 15 16 17 18 18 19 19 20 21 21 21 21 22 21 20 20 20 20 20 20 20 20 19 19
15 13 11 10 9 9 8 8 8 9 9 9 10 12 14 16 17 18 18 19 20 21 21 21 21 21 21 21 20 20 20 20 21 20 20 20 20 19

GEFSNE_500_meanwind_060.txt.gz
Wind_Speed
26 29 31 32 34 37 39 40 41 40 40 40 41 42 42 41 41 41 41 41 42 41 40 38 36 35 34 32 31 29 28 27 26 25 24 24 23 23
25 27 30 32 34 36 38 41 42 42 41 41 41 42 43 42 43 41 41 41 42 42 42 41 39 37 36 34 33 31 30 29 28 28 26 26 25 24
24 26 28 31 33 35 37 39 41 43 43 42 42 43 43 43 43 44 43 43 42 42 43 42 41 40 38 37 35 34 33 31 30 29 29 27 26 26
24 26 28 30 32 34 35 37 39 41 42 43 44 44 44 44 43 44 44 43 43 43 44 44 43 42 41 39 37 35 34 33 31 30 30 29 28 27
24 25 27 29 31 33 34 36 38 39 40 42 43 45 45 45 44 44 45 43 44 44 43 43 43 43 42 40 39 37 36 35 33 32 31 30 30 29
23 23 25 27 29 31 33 35 36 37 38 40 41 43 45 45 45 45 44 44 44 43 42 42 41 42 43 42 40 39 38 36 35 34 33 32 32 31
21 21 22 24 26 28 31 33 34 35 37 38 39 41 42 44 44 44 44 44 44 43 43 42 42 42 41 41 40 40 39 38 37 36 35 34 33 32
20 20 20 20 22 24 27 29 31 33 34 35 37 38 40 41 43 43 43 43 43 44 43 43 43 43 42 41 41 40 40 39 38 37 36 35 35 34
20 19 18 17 18 20 22 25 27 30 32 33 34 36 37 38 40 41 42 42 42 42 44 44 44 44 43 42 41 40 40 40 39 38 37 37 36 35
20 19 17 15 15 15 18 21 23 26 28 30 32 34 35 36 38 39 39 40 40 40 41 42 42 43 43 41 40 40 40 40 40 39 38 38 37 36
21 19 17 15 13 12 13 15 18 21 23 26 29 31 33 34 36 37 38 39 40 40 40 41 41 41 41 40 40 40 40 40 41 40 40 39 38 37
22 20 17 15 13 11 10 11 12 15 18 21 24 26 29 32 34 35 36 37 38 39 39 39 39 40 40 41 41 41 42 41 41 41 40 40 38 36
22 21 19 16 13 11 10 9 9 11 13 15 19 22 25 28 31 33 34 36 36 37 37 39 39 40 41 41 42 43 43 43 42 40 39 38 36 35
22 20 19 17 14 12 11 10 9 9 11 12 15 18 22 25 27 29 31 33 33 34 36 37 38 38 39 40 41 41 41 42 41 40 38 37 35 34
22 20 19 17 15 13 12 11 11 10 10 11 13 14 18 21 24 26 28 29 31 32 34 35 36 37 38 39 39 39 38 38 37 36 36 36 34 32
22 21 19 17 16 14 13 12 12 12 11 11 12 13 15 18 20 23 25 27 28 29 31 32 34 34 35 36 36 36 36 36 36 35 34 32 31 30
21 20 19 18 17 15 14 13 12 12 11 11 11 12 13 15 17 19 21 24 25 26 27 29 30 31 32 32 32 33 34 34 34 34 33 32 31 29
22 21 20 19 18 16 15 14 13 12 12 12 12 12 13 14 16 17 18 19 22 24 26 28 28 29 29 30 31 31 32 32 31 30 30 29 29 29
22 21 21 20 19 18 16 15 14 13 12 12 12 12 12 12 13 15 16 17 19 21 24 26 27 27 28 28 28 28 28 28 28 28 28 27 27 27
24 23 22 21 20 19 18 17 16 15 14 13 13 12 12 13 14 15 16 16 17 19 21 23 24 25 26 27 27 27 27 28 28 28 27 26 26 26
27 26 24 23 22 20 19 18 18 17 16 14 14 14 14 13 13 14 15 15 16 17 18 20 22 23 25 26 26 26 27 27 27 27 28 27 26 25
31 29 28 26 25 24 22 21 20 19 18 17 16 15 15 15 15 15 16 16 16 17 18 19 21 22 23 24 25 25 26 26 26 26 26 26 25 25
36 34 32 31 30 28 26 25 24 22 21 20 19 18 17 17 17 17 17 18 19 19 20 21 22 22 23 23 24 25 25 25 25 24 24 24 25 26

GEFSNE_500_meanwind_066.txt.gz
Wind_Speed
16 19 22 24 27 30 32 35 38 40 41 42 43 43 45 45 46 45 45 45 44 43 43 43 42 41 39 38 36 34 32 31 29 28 27 26 24 24
15 17 20 23 26 28 31 33 36 39 40 42 44 45 45 46 47 47 47 46 45 44 44 44 44 44 43 42 39 37 36 34 32 31 29 28 27 26
14 16 18 21 24 27 30 32 34 37 39 41 44 45 46 47 47 47 47 48 48 46 45 45 44 44 44 44 42 40 39 37 36 34 32 31 30 28
13 15 17 19 22 24 27 30 33 35 37 40 42 45 46 48 48 48 47 48 48 47 46 45 44 43 44 44 44 43 42 40 38 37 35 34 32 31
15 15 16 18 20 22 24 28 31 34 36 38 41 43 45 46 47 48 48 48 48 49 48 47 45 44 44 45 45 44 44 43 41 39 38 36 35 33
16 16 17 17 18 20 22 24 27 30 33 36 39 42 44 46 46 46 48 48 48 50 49 48 47 46 46 45 45 45 45 44 43 42 40 39 37 35
18 18 18 17 18 18 19 21 23 26 29 32 36 39 42 44 45 45 46 47 47 48 48 48 48 47 47 46 45 45 45 44 44 43 42 41 39 37
20 19 18 18 18 17 17 17 19 22 24 28 31 34 37 40 42 44 45 46 46 47 48 49 49 48 47 47 46 45 46 46 44 43 43 42 41 39
20 20 19 18 18 17 16 16 16 18 20 23 26 29 32 35 38 40 42 44 45 45 46 47 48 48 47 46 46 45 45 45 45 44 44 43 41 40
20 20 19 18 17 16 16 15 14 15 16 19 22 25 28 31 34 36 39 41 42 43 44 44 46 47 47 46 46 46 45 45 45 44 44 44 42 42
20 20 19 18 18 17 16 15 14 14 15 16 18 21 24 27 30 32 35 37 38 40 41 42 43 45 47 47 45 45 45 46 46 45 45 44 43 42
20 19 19 19 18 17 16 15 15 14 14 16 17 19 22 24 26 29 32 34 36 37 39 41 41 43 44 45 45 45 45 45 46 45 44 45 44 44
21 20 19 19 18 18 17 16 15 15 14 15 16 17 19 22 24 26 29 32 34 36 38 39 40 41 42 43 44 45 45 45 44 44 44 44 44 45
21 21 20 20 19 19 18 17 16 16 15 14 15 15 17 19 22 24 27 30 33 35 37 38 39 40 41 42 43 43 44 44 44 43 44 43 43 44
22 22 21 21 20 20 19 18 17 16 16 15 15 15 16 17 19 22 24 27 29 32 35 36 38 40 40 41 42 42 43 44 44 45 45 44 43 44
23 23 22 22 21 21 20 19 18 17 17 16 16 16 16 17 18 19 22 24 27 29 31 33 35 37 38 39 40 41 43 44 45 45 45 45 45 44
24 24 24 23 23 22 21 21 20 19 18 18 17 17 18 18 18 18 19 22 25 27 29 31 33 35 36 37 38 39 41 42 43 44 44 44 45 44
25 25 25 25 24 24 23 23 22 21 21 20 19 19 19 19 19 19 19 20 22 25 27 29 30 32 34 36 37 38 38 39 40 41 42 42 43 42
27 26 26 26 26 26 25 25 24 24 23 22 22 21 20 20 19 19 20 21 21 22 24 26 28 30 33 35 35 36 36 37 39 40 40 41 41 41
29 29 29 29 29 28 28 28 27 27 26 25 24 23 23 22 22 21 21 21 21 22 22 24 26 28 30 32 33 34 35 36 37 37 38 39 40 40
32 32 31 31 32 32 31 31 30 30 29 29 28 27 26 25 24 24 23 23 23 22 22 23 25 26 28 29 31 32 34 35 35 35 36 37 37 38
35 35 35 35 35 35 35 35 35 34 33 33 32 31 30 29 28 27 26 26 25 25 24 24 24 25 26 28 29 30 32 34 34 35 35 35 36 36
38 38 38 38 39 38 38 38 38 38 38 37 36 36 35 34 33 31 30 29 28 27 26 26 26 25 26 26 27 29 30 32 33 34 35 35 35 35